History for KNYNEWYO343

Midtown West, New York, NY — Current Conditions
Daily Summary for October 20, 2018
  Current: High: Low: Average:
Temperature: 62.1°F 62.2°F 53.8°F 58.0°F
Dew Point: 46.2°F 53.2°F 45.1°F 49.9°F
Humidity: 56% 91% 56% 78%
Wind Speed: 0.0mph 2.7mph - 0.1mph
Wind Gust: 0.0mph 5.8mph - -
Wind: East - - East
Pressure: 29.60in 29.90in 29.59in -
Precipitation: 0.04in      
Solar Radiation: 22 watts/m^2      
UV Index: 0.0      
Statistics for the rest of the month
    High: Low: Average:
Temperature:   82.8°F 42.6°F 64.2°F
Dew Point:   75.1°F 19.0°F 54.5°F
Humidity:   98.0% 31.0% 73.7%
Wind Speed:   4.3mph from the ESE - 0.1mph
Wind Gust:   10.3mph from the SE - -
Wind:   - - East
Pressure:   30.42in 29.45in -
Precipitation:   2.51in    
KNYNEWYO343 Weather Graph
Tabular Data for October 20, 2018
Time Temp. Dew Point Pressure Wind Gust Humidity Rainfall Solar Radiation
00:04 56.8°F 45.5638°F 29.89in 0mph 66% 0in 0.00 watts/m^2
00:09 56.8°F 45.5638°F 29.89in 0mph 66% 0in 0.00 watts/m^2
00:14 56.8°F 45.9607°F 29.88in 0mph 67% 0in 0.00 watts/m^2
00:19 56.8°F 45.9607°F 29.88in 0mph 67% 0in 0.00 watts/m^2
00:24 56.8°F 45.9607°F 29.87in 0mph 67% 0in 0.00 watts/m^2
00:29 56.8°F 45.9607°F 29.86in 0mph 67% 0in 0.00 watts/m^2
00:34 57°F 45.754°F 29.86in 0mph 66% 0in 0.00 watts/m^2
00:39 57.2°F 46.3417°F 29.86in 0mph 67% 0in 0.00 watts/m^2
00:44 57°F 46.1512°F 29.86in 0mph 67% 0in 0.00 watts/m^2
00:49 57.2°F 46.3417°F 29.86in 0mph 67% 0in 0.00 watts/m^2
00:54 57.2°F 46.3417°F 29.85in 0mph 67% 0in 0.00 watts/m^2
00:59 57°F 46.5433°F 29.86in 0mph 68% 0in 0.00 watts/m^2
01:04 57°F 46.5433°F 29.86in 0mph 68% 0in 0.00 watts/m^2
01:09 57°F 46.5433°F 29.85in 0mph 68% 0in 0.00 watts/m^2
01:14 57°F 46.5433°F 29.85in 0mph 68% 0in 0.00 watts/m^2
01:19 57°F 46.5433°F 29.85in 0mph 68% 0in 0.00 watts/m^2
01:24 56.8°F 46.7391°F 29.84in 0mph 69% 0in 0.00 watts/m^2
01:29 57°F 46.5433°F 29.84in 0mph 68% 0in 0.00 watts/m^2
01:34 57°F 46.5433°F 29.84in 0mph 68% 0in 0.00 watts/m^2
01:39 57°F 46.5433°F 29.83in 0mph 68% 0in 0.00 watts/m^2
01:44 57°F 46.9303°F 29.83in 0mph 69% 0in 0.00 watts/m^2
01:49 57°F 46.5433°F 29.83in 0mph 68% 0in 0.00 watts/m^2
01:54 57°F 46.9303°F 29.83in 0mph 69% 0in 0.00 watts/m^2
01:59 56.8°F 46.7391°F 29.83in 0mph 69% 0in 0.00 watts/m^2
02:04 56.8°F 46.7391°F 29.83in 0mph 69% 0in 0.00 watts/m^2
02:09 56.8°F 46.3524°F 29.83in 0mph 68% 0in 0.00 watts/m^2
02:14 56.8°F 46.7391°F 29.83in 0mph 69% 0in 0.00 watts/m^2
02:19 56.8°F 46.7391°F 29.83in 0mph 69% 0in 0.00 watts/m^2
02:24 56.8°F 46.7391°F 29.82in 0mph 69% 0in 0.00 watts/m^2
02:29 56.8°F 46.7391°F 29.83in 0mph 69% 0in 0.00 watts/m^2
02:34 56.8°F 47.1209°F 29.83in 0mph 70% 0in 0.00 watts/m^2
02:39 56.5°F 47.582°F 29.83in 0mph 72% 0in 0.00 watts/m^2
02:44 56.1°F 49.3343°F 29.83in 0mph 78% 0in 0.00 watts/m^2
02:49 55.4°F 48.996°F 29.82in 0mph 79% 0in 0.00 watts/m^2
02:54 55°F 48.9438°F 29.83in 0mph 80% 0in 0.00 watts/m^2
02:58 54.9°F 48.8465°F 29.82in 0mph 80% 0in 0.00 watts/m^2
03:03 54.9°F 49.5083°F 29.82in 0mph 82% 0in 0.00 watts/m^2
03:08 54.7°F 49.6384°F 29.81in 0mph 83% 0in 0.00 watts/m^2
03:13 54.5°F 49.7645°F 29.81in 0mph 84% 0.01in 0.00 watts/m^2
03:18 54.3°F 50.2014°F 29.81in 0mph 86% 0.01in 0.00 watts/m^2
03:23 54.1°F 50.3163°F 29.80in 0mph 87% 0.01in 0.00 watts/m^2
03:27 54.1°F 50.6244°F 29.78in 0mph 88% 0.01in 0.00 watts/m^2
03:33 54°F 50.218°F 29.79in 0mph 87% 0.01in 0.00 watts/m^2
03:38 54°F 50.218°F 29.78in 0mph 87% 0.02in 0.00 watts/m^2
03:43 54°F 50.8309°F 29.79in 0mph 89% 0.02in 0.00 watts/m^2
03:48 53.8°F 50.329°F 29.79in 0mph 88% 0.02in 0.00 watts/m^2
03:53 54°F 50.5259°F 29.79in 0mph 88% 0.02in 0.00 watts/m^2
03:58 53.8°F 50.329°F 29.78in 0mph 88% 0.02in 0.00 watts/m^2
04:03 53.8°F 50.329°F 29.78in 0mph 88% 0.02in 0.00 watts/m^2
04:08 54°F 50.218°F 29.77in 0mph 87% 0.02in 0.00 watts/m^2
04:13 54°F 50.5259°F 29.78in 0mph 88% 0.01in 0.00 watts/m^2
04:18 54°F 50.5259°F 29.79in 0mph 88% 0.01in 0.00 watts/m^2
04:23 54°F 50.5259°F 29.77in 0mph 88% 0.01in 0.00 watts/m^2
04:28 54°F 50.5259°F 29.77in 0mph 88% 0.01in 0.00 watts/m^2
04:32 54.1°F 50.3163°F 29.77in 0mph 87% 0.01in 0.00 watts/m^2
04:38 54.1°F 50.005°F 29.77in 0mph 86% 0in 0.00 watts/m^2
04:44 54.5°F 51.0182°F 29.76in 0mph 88% 0in 0.00 watts/m^2
04:48 54.3°F 50.8213°F 29.76in 0mph 88% 0.01in 0.00 watts/m^2
04:53 54.5°F 51.3238°F 29.76in 0mph 89% 0.01in 0.00 watts/m^2
04:58 54.3°F 51.429°F 29.76in 0mph 90% 0.01in 0.00 watts/m^2
05:04 54.3°F 51.429°F 29.74in 0mph 90% 0.01in 0.00 watts/m^2
05:09 54.1°F 51.5306°F 29.76in 0mph 91% 0.02in 0.00 watts/m^2
05:13 54.1°F 51.5306°F 29.76in 0mph 91% 0.02in 0.00 watts/m^2
05:18 54.1°F 51.2315°F 29.75in 0mph 90% 0.02in 0.00 watts/m^2
05:24 54.1°F 51.2315°F 29.75in 0mph 90% 0.02in 0.00 watts/m^2
05:29 54.1°F 51.2315°F 29.73in 0mph 90% 0.02in 0.00 watts/m^2
05:33 54.1°F 51.5306°F 29.74in 0mph 91% 0.02in 0.00 watts/m^2
05:39 54.1°F 51.5306°F 29.75in 0mph 91% 0.02in 0.00 watts/m^2
05:43 54.1°F 51.2315°F 29.75in 0mph 90% 0.02in 0.00 watts/m^2
05:49 54.3°F 51.1266°F 29.74in 0mph 89% 0.01in 0.00 watts/m^2
05:54 54.3°F 51.429°F 29.74in 0mph 90% 0.01in 0.00 watts/m^2
05:59 54.3°F 51.429°F 29.75in 0mph 90% 0.01in 0.00 watts/m^2
06:03 54.3°F 51.429°F 29.74in 0mph 90% 0.01in 0.00 watts/m^2
06:09 54.5°F 51.9261°F 29.74in 0mph 91% 0in 0.00 watts/m^2
06:14 54.5°F 51.6264°F 29.73in 0mph 90% 0in 0.00 watts/m^2
06:19 54.5°F 51.6264°F 29.73in 0mph 90% 0in 0.00 watts/m^2
06:23 54.5°F 51.9261°F 29.73in 0mph 91% 0in 0.00 watts/m^2
06:29 54.5°F 51.9261°F 29.73in 0mph 91% 0in 0.00 watts/m^2
06:33 54.5°F 51.9261°F 29.73in 0mph 91% 0in 0.00 watts/m^2
06:39 54.7°F 51.8239°F 29.74in 0mph 90% 0in 0.00 watts/m^2
06:44 54.7°F 51.8239°F 29.73in 0mph 90% 0in 0.00 watts/m^2
06:48 54.7°F 52.1238°F 29.73in 0mph 91% 0in 0.00 watts/m^2
06:54 54.9°F 52.3215°F 29.73in 0mph 91% 0in 0.00 watts/m^2
06:59 54.9°F 51.7182°F 29.73in 0mph 89% 0in 0.00 watts/m^2
07:04 55°F 52.1201°F 29.73in 0mph 90% 0in 0.00 watts/m^2
07:09 55°F 52.1201°F 29.73in 0mph 90% 0in 0.00 watts/m^2
07:14 55°F 51.8168°F 29.73in 0mph 89% 0in 0.00 watts/m^2
07:19 55°F 51.8168°F 29.74in 0mph 89% 0in 0.00 watts/m^2
07:24 55°F 51.8168°F 29.73in 0mph 89% 0in 0.00 watts/m^2
07:29 55°F 51.8168°F 29.75in 0mph 89% 0in 0.00 watts/m^2
07:34 55°F 51.8168°F 29.75in 0mph 89% 0in 0.00 watts/m^2
07:39 55°F 51.8168°F 29.74in 0mph 89% 0in 0.00 watts/m^2
07:43 55°F 52.1201°F 29.74in 0mph 90% 0in 0.00 watts/m^2
07:49 55°F 52.1201°F 29.75in 0mph 90% 0in 1.22 watts/m^2
07:54 55°F 52.1201°F 29.75in 0mph 90% 0in 2.57 watts/m^2
07:58 55°F 52.1201°F 29.75in 0mph 90% 0in 1.71 watts/m^2
08:04 54.9°F 52.3215°F 29.75in 0mph 91% 0in 3.79 watts/m^2
08:09 55°F 52.4204°F 29.75in 0mph 91% 0in 3.79 watts/m^2
08:14 55°F 52.1201°F 29.75in 0mph 90% 0in 5.14 watts/m^2
08:18 55°F 52.1201°F 29.75in 0mph 90% 0in 7.34 watts/m^2
08:24 55.2°F 52.3175°F 29.75in 0mph 90% 0in 3.79 watts/m^2
08:29 55.2°F 52.3175°F 29.75in 0mph 90% 0in 5.99 watts/m^2
08:34 55.2°F 52.3175°F 29.76in 0mph 90% 0in 10.77 watts/m^2
08:39 55.2°F 52.3175°F 29.76in 0mph 90% 0in 9.05 watts/m^2
08:44 55.2°F 52.6181°F 29.75in 0mph 91% 0in 13.33 watts/m^2
08:49 55.2°F 52.6181°F 29.76in 0mph 91% 0in 26.42 watts/m^2
08:54 55.4°F 52.515°F 29.76in 0mph 90% 0in 55.90 watts/m^2
08:59 55.6°F 52.7124°F 29.75in 1.1mph 90% 0in 43.80 watts/m^2
09:04 55.8°F 52.9099°F 29.75in 0mph 90% 0in 35.11 watts/m^2
09:09 55.9°F 53.0086°F 29.75in 0mph 90% 0in 44.65 watts/m^2
09:14 55.9°F 53.0086°F 29.74in 0mph 90% 0in 32.42 watts/m^2
09:19 55.9°F 52.7041°F 29.74in 0mph 89% 0in 42.94 watts/m^2
09:24 56.1°F 52.9013°F 29.75in 0mph 89% 0in 58.97 watts/m^2
09:29 56.1°F 52.9013°F 29.74in 0mph 89% 0in 41.96 watts/m^2
09:33 56.3°F 52.7905°F 29.74in 0mph 88% 0in 37.19 watts/m^2
09:39 56.3°F 53.0985°F 29.74in 0mph 89% 0in 32.90 watts/m^2
09:43 56.3°F 52.7905°F 29.74in 0mph 88% 0in 28.63 watts/m^2
09:49 56.1°F 52.5935°F 29.73in 0mph 88% 0in 54.19 watts/m^2
09:54 56.3°F 52.7905°F 29.73in 0mph 88% 0in 68.02 watts/m^2
09:59 56.3°F 52.7905°F 29.73in 0mph 88% 0in 55.90 watts/m^2
10:04 56.5°F 52.9874°F 29.72in 0mph 88% 0in 76.70 watts/m^2
10:08 56.7°F 52.8726°F 29.72in 0mph 87% 0in 83.68 watts/m^2
10:13 56.8°F 52.9709°F 29.73in 0mph 87% 0in 55.41 watts/m^2
10:19 57°F 53.1676°F 29.72in 0mph 87% 0in 65.45 watts/m^2
10:24 57.2°F 53.0487°F 29.71in 0mph 86% 0in 101.41 watts/m^2
10:29 57.6°F 53.1221°F 29.71in 1.1mph 85% 0in 91.87 watts/m^2
10:34 57.7°F 52.5712°F 29.72in 0mph 83% 0in 80.25 watts/m^2
10:39 57.7°F 52.5712°F 29.72in 0mph 83% 0in 40.24 watts/m^2
10:44 57.7°F 53.2201°F 29.71in 0mph 85% 0in 37.19 watts/m^2
10:49 57.6°F 52.1439°F 29.71in 0mph 82% 0in 59.33 watts/m^2
10:54 57.7°F 52.2415°F 29.72in 2.2mph 82% 0in 89.31 watts/m^2
10:59 57.7°F 52.2415°F 29.72in 1.1mph 82% 0in 67.16 watts/m^2
11:04 57.9°F 52.1033°F 29.73in 3.4mph 81% 0in 57.25 watts/m^2
11:09 57.9°F 51.7662°F 29.73in 0mph 80% 0in 69.36 watts/m^2
11:14 58.3°F 51.814°F 29.72in 0mph 79% 0in 98.36 watts/m^2
11:19 58.5°F 50.9598°F 29.72in 1.1mph 76% 0in 78.41 watts/m^2
11:24 58.6°F 50.6988°F 29.72in 1.1mph 75% 0in 75.85 watts/m^2
11:29 58.6°F 50.6988°F 29.71in 0mph 75% 0in 81.10 watts/m^2
11:34 58.8°F 50.5296°F 29.71in 1.1mph 74% 0in 80.62 watts/m^2
11:39 59°F 50.7224°F 29.71in 0mph 74% 0in 77.56 watts/m^2
11:44 59.2°F 50.548°F 29.71in 0mph 73% 0in 55.90 watts/m^2
11:49 59.2°F 50.548°F 29.71in 1.1mph 73% 0in 38.53 watts/m^2
11:54 58.8°F 50.5296°F 29.71in 1.1mph 74% 0in 50.65 watts/m^2
11:59 58.8°F 50.163°F 29.71in 2.2mph 73% 0in 68.02 watts/m^2
12:04 58.8°F 50.5296°F 29.71in 1.1mph 74% 0in 71.07 watts/m^2
12:09 59°F 50.7224°F 29.70in 1.1mph 74% 0in 125.76 watts/m^2
12:14 59.7°F 50.6566°F 29.70in 1.1mph 72% 0in 107.04 watts/m^2
12:19 59.5°F 50.4645°F 29.70in 1.1mph 72% 0in 94.93 watts/m^2
12:24 59.4°F 50.3684°F 29.70in 1.1mph 72% 0in 44.65 watts/m^2
12:29 59.5°F 50.4645°F 29.70in 1.1mph 72% 0in 73.28 watts/m^2
12:34 59.7°F 50.2796°F 29.70in 2.2mph 71% 0in 45.87 watts/m^2
12:39 59.5°F 49.7063°F 29.69in 0mph 70% 0in 60.68 watts/m^2
12:43 59.7°F 49.5112°F 29.69in 1.1mph 69% 0in 42.45 watts/m^2
12:49 59.7°F 49.1197°F 29.69in 1.1mph 68% 0in 38.17 watts/m^2
12:54 59.7°F 49.1197°F 29.69in 2.2mph 68% 0in 54.56 watts/m^2
12:58 59.7°F 48.723°F 29.69in 0mph 67% 0in 64.96 watts/m^2
13:04 59.9°F 48.9135°F 29.68in 1.1mph 67% 0in 88.82 watts/m^2
13:09 60.3°F 48.8915°F 29.68in 0mph 66% 0in 87.96 watts/m^2
13:14 60.4°F 49.3897°F 29.68in 0mph 67% 0in 84.04 watts/m^2
13:19 60.6°F 49.5801°F 29.67in 0mph 67% 0in 79.76 watts/m^2
13:22 60.6°F 48.7678°F 29.68in 0mph 65% 0in 67.65 watts/m^2
13:29 60.3°F 48.8915°F 29.67in 0mph 66% 0in 77.19 watts/m^2
13:34 60.3°F 48.8915°F 29.67in 0mph 66% 0in 38.53 watts/m^2
13:39 60.3°F 49.2944°F 29.66in 0mph 67% 0in 43.80 watts/m^2
13:44 60.4°F 48.5781°F 29.67in 1.1mph 65% 0in 39.02 watts/m^2
13:49 60.3°F 48.4832°F 29.66in 0mph 65% 0in 30.34 watts/m^2
13:54 60.3°F 48.4832°F 29.67in 0mph 65% 0in 28.14 watts/m^2
13:59 60.8°F 48.5428°F 29.65in 1.1mph 64% 0in 38.53 watts/m^2
14:04 60.6°F 47.9333°F 29.65in 0mph 63% 0in 31.19 watts/m^2
14:09 60.3°F 48.4832°F 29.65in 0mph 65% 0in 35.97 watts/m^2
14:14 60.3°F 48.0693°F 29.65in 0mph 64% 0in 61.17 watts/m^2
14:19 60.4°F 47.7442°F 29.65in 1.1mph 63% 0in 63.73 watts/m^2
14:24 60.6°F 47.5072°F 29.64in 0mph 62% 0in 66.80 watts/m^2
14:29 60.8°F 48.5428°F 29.65in 0mph 64% 0in 80.62 watts/m^2
14:33 61.2°F 48.0732°F 29.64in 1.1mph 62% 0in 71.93 watts/m^2
14:39 61.2°F 48.0732°F 29.64in 1.1mph 62% 0in 39.02 watts/m^2
14:44 61.5°F 48.3563°F 29.64in 1.1mph 62% 0in 70.22 watts/m^2
14:49 61.7°F 48.5449°F 29.64in 1.1mph 62% 0in 38.53 watts/m^2
14:54 61.7°F 48.5449°F 29.64in 0mph 62% 0in 71.56 watts/m^2
14:59 61.9°F 48.299°F 29.63in 0mph 61% 0in 60.19 watts/m^2
15:04 62.1°F 48.0461°F 29.63in 0mph 60% 0in 41.59 watts/m^2
15:09 62.2°F 48.14°F 29.63in 1.1mph 60% 0in 48.07 watts/m^2
15:14 61.9°F 46.9567°F 29.63in 1.1mph 58% 0in 45.87 watts/m^2
15:19 61.7°F 46.7695°F 29.63in 1.1mph 58% 0in 35.48 watts/m^2
15:24 61.9°F 47.4108°F 29.62in 1.1mph 59% 0in 32.90 watts/m^2
15:29 61.7°F 46.3089°F 29.62in 1.1mph 57% 0in 30.34 watts/m^2
15:34 61.9°F 46.9567°F 29.61in 0mph 58% 0in 26.79 watts/m^2
15:39 62.1°F 48.0461°F 29.61in 0mph 60% 0in 23.85 watts/m^2
15:44 62.1°F 47.5983°F 29.61in 0mph 59% 0in 22.87 watts/m^2
15:49 61.9°F 46.9567°F 29.61in 0mph 58% 0in 23.85 watts/m^2
15:54 62.1°F 46.6824°F 29.60in 0mph 57% 0in 22.51 watts/m^2
15:59 62.1°F 47.1438°F 29.60in 0mph 58% 0in 21.65 watts/m^2
16:03 62.2°F 46.7758°F 29.59in 1.1mph 57% 0in 22.02 watts/m^2
16:09 62.1°F 46.2138°F 29.60in 0mph 56% 0in 22.87 watts/m^2
16:14 62.2°F 46.7758°F 29.60in 0mph 57% 0in 22.51 watts/m^2
16:19 61.9°F 46.0274°F 29.60in 1.1mph 56% 0in 20.80 watts/m^2
16:24 61.9°F 46.0274°F 29.59in 0mph 56% 0in 22.51 watts/m^2
Comma Delimited File
Powered by Weather Underground, Inc.